디시인사이드 갤러리

리듬게임 갤러리

갤러리 이슈박스, 최근방문 갤러리

갤러리 본문 영역

두시간자고일어나야하네모바일에서 작성

먱순정갤로그로 이동합니다. 2020.07.05 09:50:26
조회 23 추천 0 댓글 1
							
viewimage.php?no=24b0d769e1d32ca73ded8ffa11d028313550f9fb3f9dac8b24082c81cb5f5a4418995aed99d51c9d8dcf3cbb5e2633bac0d970c766d1d4f2d8700282325995fb10216b7d5d160a7ec7ada5352eda2ec28f4df8f5e32d52e6633d4d31bc8da1b5

인생개쳐망햇내

추천 비추천

0

고정닉 0

0

원본 첨부파일 1

댓글 영역

전체 리플 0
등록순정렬 기준선택

하단 갤러리 리스트 영역

왼쪽 컨텐츠 영역

갤러리 리스트 영역

갤러리 리스트
번호 제목 글쓴이 작성일 조회 추천
이슈 월간디시 8월호 : 반갑다 논란아 운영자 20/07/31 - -
뉴스 전설적 DJ 아비치 음악 게임 '아비치 인벡터' 정식 출시 [3] 게임메카갤로그로 이동합니다. 20.08.03 62 0
공지 리듬게임에 관련된 사진과 내용을 올려주시기 바랍니다. [745] 운영자 06.08.29 10673519 207
11139272 트라*이드 다 12.6 상위로 보네 Zzz...갤로그로 이동합니다. 11:33 11 0
11139271 따오측에서 기타콘 만든다는게 4월인데 도대체 어떻게 알았던거지 kinetic갤로그로 이동합니다. 11:33 18 0
11139270 진짜 ㅅㅂ 인생에 도움이안되는련들 5123874갤로그로 이동합니다. 11:32 13 0
11139269 기타박힘콘 삽니다 니엔테갤로그로 이동합니다. 11:28 21 0
11139268 이거 키설정에 레프트심벌이랑 라이트 심벌 반대임.. yen(175.223) 11:28 22 0
11139267 기타히어로 이거 될까 [6] kinetic갤로그로 이동합니다. 11:28 41 0
11139266 저거 만약 정식서비스되면 기타가 좀더 흥하겠네 [4] MELT갤로그로 이동합니다. 11:26 54 0
11139265 튜툐에 한글있네 [2] ㅇㅇ(211.210) 11:24 37 0
11139264 이렇게되면 피씨도라는 오지야 카챠카 이런게 날먹곡 되는거아닌가 BUILDWATER갤로그로 이동합니다. 11:22 25 0
11139263 국내 미리미리 홈케 준비하라구~ ㅇㅇ(223.38) 11:22 30 0
11139262 갑자기 코나스테 개발열심히하는데 Flexin(210.91) 11:22 26 0
11139261 뭔데 왜 기타드럼은 HTML5 아니고 윈도우인데. [5] blurtic갤로그로 이동합니다. 11:22 82 2
11139260 이제 PC로 안나온 비마니 게임이 뭐 있나.. 디케이드갤로그로 이동합니다. 11:21 26 0
11139259 키보드는 키 못바꾸나보네 [1] .민초갤로그로 이동합니다. 11:20 35 0
11139258 충북대더리듬 실제로 오픈함? [1] Bamtrollface갤로그로 이동합니다. 11:20 33 0
11139257 일어나서 카트만하다가왔는데 기타도라 뭐야 [2] Colors갤로그로 이동합니다. 11:19 34 0
11139256 호오... .민초갤로그로 이동합니다. 11:19 24 0
11139255 따스 돈되지 ㅇㅇ(223.38) 11:19 17 0
11139254 수록곡이 단 4곡이고 나발이고 [4] Flexin(210.91) 11:16 57 0
11139253 일망타진 아직도 풀캄보 안나왔냐 ㅇㅇ(117.111) 11:15 18 0
11139252 도라 키조작 실화냐? [3] BUILDWATER갤로그로 이동합니다. 11:15 55 0
11139251 도라는 전자드럼 연결댄다고하는데 [1] Flexin(210.91) 11:14 33 0
11139250 코나미쪽은 코로나가 더 유행 한다고 판단했나봄니다 [1] ㅇㅇ(223.38) 11:14 43 0
11139249 아니 무슨 PC도라를 ㅋㅋㅋㅋ BUILDWATER갤로그로 이동합니다. 11:14 22 0
11139248 드럼 키조작 그냥 1자키네 [5] .민초갤로그로 이동합니다. 11:13 48 0
11139247 가정용 스레에서는 아레나모드 따스에 수록된다는데 [2] ㅇㅇ(223.38) 11:12 38 0
11139246 버튼을 씹창내는 후배 [1] ㅂㄹㅅㅌ(223.38) 11:12 48 0
11139245 지금 빅사실맨 풀발기에 연차쓸듯 [1] ㅇㅇ(223.38) 11:09 33 0
11139244 챱챱보다 기타도라가 먼저나온게 신기하네 Flexin(210.91) 11:09 17 0
11139243 좆본어 고수행님들 헬프 [3] Flexin(210.91) 11:04 43 0
11139242 와 수록곡 리스트 레젼드네 [3] RottenBlotch갤로그로 이동합니다. 11:00 74 0
11139241 따스도 창모드랑 fhd좀.. [3] yen(175.223) 10:59 48 0
11139240 코나미 요즘 돈벌이가 시원치 않나 [3] MELT갤로그로 이동합니다. 10:57 80 0
11139239 그럼 그 따오 기타콘낸다는거는 정보가 있어서 만든다고한건가? ㅇㅇ(221.155) 10:56 37 0
11139238 기타코나스테머노 정왕동부엉이갤로그로 이동합니다. 10:55 17 0
11139237 코나스테 한국어 실화????? [1] Flexin(210.91) 10:54 76 0
11139236 조이투키 설치하고 매핑이나 해봐야지 ㅋㅋㅋ Flexin(210.91) 10:53 22 0
11139235 기타는 키 누르면서 화살표 위아래.. [1] yen(175.223) 10:49 51 0
11139234 코나스테로 기타나오면 주작콘으로 턴테이블 모드 씹가능 [3] Flexin(210.91) 10:49 46 0
11139233 아니 진짜 코나스테 유비트 리플렉 나올 기세네 RottenBlotch갤로그로 이동합니다. 10:47 28 0
11139232 키보드로 드럼 웃기네요 [1] yen(175.223) 10:46 49 0
11139231 내일모래전역하는데 사회나가면 뭐하지?(쿨하게) [2] Turquoise갤로그로 이동합니다. 10:44 52 0
11139230 코니스테 기타도라나오네... [3] yen(175.223) 10:43 89 0
11139229 낼모레 업뎃이요 Flexin(210.91) 10:36 21 0
11139228 역시 게임은 접는 게 아니라 안 하게 되는 거야 [1] 말걸리기장인갤로그로 이동합니다. 10:32 47 0
11139227 보지 [2] Turquoise갤로그로 이동합니다. 10:28 78 0
11139226 라면묵고븜스해야지.. [2] CU갤로그로 이동합니다. 10:27 35 0
11139225 군대애이지투잇엇으면나개고수되서전역햇을듯 [5] 죠예령갤로그로 이동합니다. 10:14 69 0
갤러리 내부 검색
전체게시물 정렬 옵션

오른쪽 컨텐츠 영역

이슈줌NEW

1/6

힛(HIT)NEW

그때 그 힛

1/3